KC3BAN-13 Weather Reports


Display with metric or nautical units.
time (UTC)temp
F
wind
direction
speed
MPH
gust
MPH
rain 1hr
in
rain 24hr
in
rain mn
in
humidity
%
barometer
mb
20260902115320 73 72 0.0 0.0 0.00 0.00 0.00 71 1010.3
20260902114813 73 72 0.0 0.0 0.00 0.00 0.00 71 1010.4
20260902114307 73 72 0.0 0.0 0.00 0.00 0.00 71 1010.4
20260902113802 72 72 0.0 0.0 0.00 0.00 0.00 72 1010.4
20260902113255 72 72 0.0 0.0 0.00 0.00 0.00 72 1010.4
20260902113012 72 72 0.0 0.0 0.00 0.00 0.00 72 1010.3
20260902112243 71 72 0.0 0.0 0.00 0.00 0.00 72 1010.4
20260902111737 71 72 0.0 0.0 0.00 0.00 0.00 73 1010.4
20260902111455 71 72 0.0 0.0 0.00 0.00 0.00 73 1010.4
20260902110726 71 72 0.0 0.0 0.00 0.00 0.00 73 1010.3
20260902110219 71 72 0.0 0.0 0.00 0.00 0.00 73 1010.3
20260902105713 71 72 0.0 0.0 0.00 0.00 0.00 73 1010.1
20260902105208 71 72 0.0 0.0 0.00 0.00 0.00 74 1010.1
20260902104703 71 72 0.0 0.0 0.00 0.00 0.00 75 1010.1
20260902104156 71 72 0.0 0.0 0.00 0.00 0.00 75 1010.1
20260902103649 71 72 0.0 0.0 0.00 0.00 0.00 75 1010.1
20260902103143 71 72 0.0 0.0 0.00 0.00 0.00 75 1010.0
20260902102637 71 72 0.0 0.0 0.00 0.00 0.00 75 1010.0
20260902102133 71 72 0.0 0.0 0.00 0.00 0.00 75 1009.9
20260902101852 71 72 0.0 0.0 0.00 0.00 0.00 75 1009.9
20260902101119 71 72 0.0 0.0 0.00 0.00 0.00 75 1009.7
20260902100613 71 72 0.0 0.0 0.00 0.00 0.00 75 1009.7
20260902100107 71 72 0.0 0.0 0.00 0.00 0.00 75 1009.7
20260902095602 71 72 0.0 0.0 0.00 0.00 0.00 75 1009.7
20260902095055 71 72 0.0 0.0 0.00 0.00 0.00 76 1009.7
20260902094550 71 72 0.0 0.0 0.00 0.00 0.00 77 1009.8
20260902094044 71 72 0.0 0.0 0.00 0.00 0.00 77 1009.9
20260902093537 71 72 0.0 0.0 0.00 0.00 0.00 77 1009.9
20260902093032 71 72 0.0 0.0 0.00 0.00 0.00 78 1009.9
20260902092746 71 72 0.0 0.0 0.00 0.00 0.00 78 1009.9
20260902092019 72 72 0.0 0.0 0.00 0.00 0.00 77 1009.9
20260902091516 72 72 0.0 0.0 0.00 0.00 0.00 78 1009.8
20260902091015 72 72 0.0 0.0 0.00 0.00 0.00 78 1009.7
20260902090515 72 72 0.0 0.0 0.00 0.00 0.00 79 1009.8
20260902090236 72 72 0.0 0.0 0.00 0.00 0.00 79 1009.8
20260902085514 72 72 0.0 0.0 0.00 0.00 0.00 79 1009.8
20260902085015 72 72 0.0 0.0 0.00 0.00 0.00 79 1009.9
20260902084513 72 72 0.0 0.0 0.00 0.00 0.00 80 1009.8
20260902084011 72 72 0.0 0.0 0.00 0.00 0.00 81 1009.9
20260902083511 73 72 0.0 0.0 0.00 0.00 0.00 80 1010.0
20260902083011 73 72 0.0 0.0 0.00 0.00 0.00 81 1009.9
20260902082511 73 72 0.0 0.0 0.00 0.00 0.00 82 1009.8
20260902082233 73 72 0.0 0.0 0.00 0.00 0.00 82 1009.8
20260902081507 73 72 0.0 0.0 0.00 0.00 0.00 82 1009.8
20260902081003 73 72 0.0 0.0 0.00 0.00 0.00 82 1009.8
20260902080501 73 72 0.0 0.0 0.00 0.00 0.00 82 1009.9
20260902075959 73 72 0.0 0.0 0.00 0.00 0.00 83 1009.9
20260902075723 74 72 0.0 0.0 0.00 0.00 0.00 84 1009.8
20260902075000 74 72 0.0 0.0 0.00 0.00 0.00 83 1009.9
20260902074457 74 72 0.0 0.0 0.00 0.00 0.00 84 1009.7
20260902073958 74 72 0.0 0.0 0.00 0.00 0.00 84 1009.5
20260902073450 74 72 0.0 0.0 0.00 0.00 0.00 84 1009.4
20260902072440 75 72 0.0 1.0 0.00 0.00 0.00 84 1009.3
20260902071933 75 72 0.0 1.0 0.00 0.00 0.00 84 1009.2
20260902071427 75 72 0.0 1.0 0.00 0.00 0.00 84 1009.1
20260902070927 75 72 0.0 1.0 0.00 0.00 0.00 84 1009.2
20260902070425 75 72 0.0 1.0 0.00 0.00 0.00 84 1009.2
20260902065922 76 89 0.0 1.0 0.00 0.00 0.00 84 1009.2
20260902065421 76 89 0.0 1.0 0.00 0.00 0.00 84 1009.3
20260902064921 76 89 0.0 1.0 0.00 0.00 0.00 84 1009.3
20260902064421 76 177 0.0 0.0 0.00 0.00 0.00 84 1009.1
20260902063920 76 177 0.0 1.0 0.00 0.00 0.00 84 1009.0
20260902063420 77 177 0.0 1.0 0.00 0.00 0.00 84 1008.8
20260902062920 77 94 0.0 4.0 0.00 0.00 0.00 84 1009.0
20260902062420 77 94 1.0 4.0 0.00 0.00 0.00 84 1009.0
20260902061920 77 51 1.0 4.0 0.00 0.00 0.00 84 1009.1
20260902061416 77 56 1.0 5.0 0.00 0.00 0.00 84 1009.1
20260902060916 77 79 2.0 5.0 0.00 0.00 0.00 84 1009.1
20260902060416 77 48 2.0 8.0 0.00 0.00 0.00 84 1009.1
20260902060133 77 68 3.0 8.0 0.00 0.00 0.00 84 1009.2
20260902055417 77 60 3.0 6.0 0.00 0.00 0.00 83 1009.1
20260902054417 76 60 2.0 9.0 0.00 0.00 0.00 77 1008.9
20260902053916 75 354 1.0 8.0 0.00 0.00 0.00 77 1009.0
20260902053417 75 107 0.0 0.0 0.00 0.00 0.00 78 1008.6
20260902052917 75 107 0.0 0.0 0.00 0.00 0.00 78 1008.5
20260902052416 76 107 0.0 0.0 0.00 0.00 0.00 78 1008.6
20260902051916 76 107 0.0 0.0 0.00 0.00 0.00 79 1008.6
20260902051417 76 107 0.0 0.0 0.00 0.00 0.00 79 1008.6
20260902050916 76 107 0.0 0.0 0.00 0.00 0.00 79 1008.6
20260902050417 76 107 0.0 0.0 0.00 0.00 0.00 79 1008.7
20260902045916 76 107 0.0 0.0 0.00 0.00 0.00 80 1008.8
20260902045417 76 107 0.0 0.0 0.00 0.00 0.00 80 1008.9
20260902044916 76 107 0.0 0.0 0.00 0.00 0.00 80 1008.9
20260902044635 76 107 0.0 0.0 0.00 0.00 0.00 81 1008.7
20260902044143 77 107 0.0 0.0 0.00 0.00 0.00 81 1008.7
20260902043416 77 107 0.0 0.0 0.00 0.00 0.00 81 1008.7
20260902042916 77 107 0.0 0.0 0.00 0.00 0.00 81 1008.7
20260902042416 77 107 0.0 0.0 0.00 0.00 0.00 81 1008.7
20260902042142 77 107 0.0 2.0 0.00 0.00 0.00 81 1008.6
20260902041418 77 107 1.0 4.0 0.00 0.00 0.00 80 1008.6
20260902040913 77 70 1.0 4.0 0.00 0.00 0.00 80 1008.6
20260902040630 77 293 0.0 1.0 0.00 0.00 0.00 81 1008.5
20260902035904 77 291 0.0 0.0 0.00 0.00 0.00 81 1008.3
20260902035358 77 291 0.0 0.0 0.00 0.00 0.00 82 1008.2
20260902035117 77 291 0.0 0.0 0.00 0.00 0.00 82 1008.2
20260902034346 78 291 0.0 0.0 0.00 0.00 0.00 83 1008.2
20260902033844 78 291 0.0 0.0 0.00 0.00 0.00 82 1008.0
20260902033342 78 291 0.0 0.0 0.00 0.00 0.00 83 1008.0
20260902032842 78 291 0.0 0.0 0.00 0.00 0.00 83 1007.9
20260902032343 78 291 0.0 0.0 0.00 0.00 0.00 83 1007.9
20260902031841 78 291 0.0 0.0 0.00 0.00 0.00 84 1007.8
20260902031337 78 291 0.0 0.0 0.00 0.00 0.00 84 1007.8
20260902030835 79 291 0.0 0.0 0.00 0.00 0.00 84 1007.7
20260902030336 79 291 0.0 0.0 0.00 0.00 0.00 84 1007.7
20260902025836 79 291 0.0 0.0 0.00 0.00 0.00 84 1007.6
20260902025334 79 291 0.0 0.0 0.00 0.00 0.00 84 1007.6
20260902024832 80 291 0.0 0.0 0.00 0.00 0.00 84 1007.4
20260902024332 80 291 0.0 0.0 0.00 0.00 0.00 84 1007.4
20260902023834 80 291 0.0 0.0 0.00 0.00 0.00 83 1007.3
20260902023330 80 291 0.0 1.0 0.00 0.00 0.00 83 1007.3
20260902022828 80 291 0.0 1.0 0.00 0.00 0.00 83 1007.3
20260902022327 80 291 0.0 1.0 0.00 0.00 0.00 83 1007.4
20260902022053 80 291 0.0 1.0 0.00 0.00 0.00 83 1007.5
20260902020820 80 230 0.0 0.0 0.00 0.00 0.00 83 1007.6
20260902020318 80 230 0.0 0.0 0.00 0.00 0.00 83 1007.6
20260902020042 80 230 0.0 0.0 0.00 0.00 0.00 83 1007.5
20260902015310 80 230 0.0 0.0 0.00 0.00 0.00 83 1007.5
20260902014803 80 230 0.0 1.0 0.00 0.00 0.00 83 1007.3
20260902014257 80 230 0.0 2.0 0.00 0.00 0.00 83 1007.3
20260902013751 80 230 0.0 2.0 0.00 0.00 0.00 83 1007.3
20260902013502 80 232 0.0 2.0 0.00 0.00 0.00 83 1007.2
20260902012740 80 184 0.0 0.0 0.00 0.00 0.00 83 1007.1
20260902012233 80 184 0.0 0.0 0.00 0.00 0.00 83 1007.1
20260902011727 80 184 0.0 1.0 0.00 0.00 0.00 83 1007.1
20260902011222 80 184 0.0 1.0 0.00 0.00 0.00 83 1007.0
20260902010716 80 184 0.0 2.0 0.00 0.00 0.00 83 1007.0
20260902010210 80 184 0.0 2.0 0.00 0.00 0.00 83 1007.0
20260902005704 81 231 0.0 2.0 0.00 0.00 0.00 83 1006.9
20260902005158 81 212 0.0 1.0 0.00 0.00 0.00 82 1006.8
20260902004652 81 212 0.0 1.0 0.00 0.00 0.00 82 1006.7
20260902004145 81 325 0.0 0.0 0.00 0.00 0.00 82 1006.8
20260902003640 81 325 0.0 1.0 0.00 0.00 0.00 81 1006.6
20260902003133 82 325 0.0 1.0 0.00 0.00 0.00 81 1006.4
20260902002627 82 168 0.0 0.0 0.00 0.00 0.00 81 1006.1
20260902002122 82 168 0.0 0.0 0.00 0.00 0.00 80 1006.0
20260902001616 82 169 0.0 0.0 0.00 0.00 0.00 79 1005.8
20260902001110 83 168 0.0 0.0 0.00 0.00 0.00 78 1005.9
20260902000824 83 168 0.0 0.0 0.00 0.00 0.00 77 1005.9
20260902000058 83 168 0.0 1.0 0.00 0.00 0.00 76 1005.8
20260901235558 84 168 0.0 1.0 0.00 0.00 0.00 76 1005.9
20260901235320 84 168 0.0 0.0 0.00 0.00 0.00 74 1005.8
20260901234815 84 168 0.0 0.0 0.00 0.00 0.00 74 1005.8
20260901234056 85 169 0.0 0.0 0.00 0.00 0.00 73 1005.9
20260901233557 85 168 0.0 0.0 0.00 0.00 0.00 73 1006.0
20260901233053 85 168 0.0 0.0 0.00 0.00 0.00 73 1006.1
20260901232812 85 168 0.0 1.0 0.00 0.00 0.00 73 1006.0
20260901232050 85 168 0.0 1.0 0.00 0.00 0.00 72 1006.0
20260901231550 86 223 0.0 1.0 0.00 0.00 0.00 72 1006.1
20260901231307 87 223 0.0 1.0 0.00 0.00 0.00 72 1006.1
20260901230550 87 223 0.0 0.0 0.00 0.00 0.00 71 1006.1
20260901230050 88 223 0.0 0.0 0.00 0.00 0.00 69 1006.1
20260901225551 89 223 0.0 0.0 0.00 0.00 0.00 67 1006.2
20260901225047 89 223 0.0 0.0 0.00 0.00 0.00 65 1006.3
20260901224547 90 223 0.0 0.0 0.00 0.00 0.00 64 1006.2
20260901223805 92 223 0.0 1.0 0.00 0.00 0.00 59 1006.1
20260901223047 92 223 0.0 2.0 0.00 0.00 0.00 57 1006.1
20260901222547 92 223 1.0 4.0 0.00 0.00 0.00 56 1006.2
20260901222047 93 228 1.0 7.0 0.00 0.00 0.00 56 1006.2
20260901221547 93 253 1.0 7.0 0.00 0.00 0.00 55 1006.2
20260901221048 93 250 1.0 6.0 0.00 0.00 0.00 53 1006.2
20260901215544 95 195 1.0 3.0 0.00 0.00 0.00 54 1006.3
20260901215043 94 166 0.0 2.0 0.00 0.00 0.00 55 1006.3
20260901214543 94 343 0.0 3.0 0.00 0.00 0.00 56 1006.3
20260901214043 94 343 0.0 3.0 0.00 0.00 0.00 54 1006.4
20260901213817 94 268 0.0 2.0 0.00 0.00 0.00 53 1006.4
20260901213043 94 174 0.0 2.0 0.00 0.00 0.00 51 1006.4
20260901212544 95 210 0.0 2.0 0.00 0.00 0.00 52 1006.4
20260901212040 96 213 0.0 2.0 0.00 0.00 0.00 52 1006.4
20260901211540 96 131 1.0 6.0 0.00 0.00 0.00 51 1006.5
20260901211040 95 163 1.0 6.0 0.00 0.00 0.00 51 1006.4
20260901210540 95 172 0.0 3.0 0.00 0.00 0.00 52 1006.5
20260901210040 95 224 0.0 2.0 0.00 0.00 0.00 51 1006.6
20260901205539 95 214 0.0 3.0 0.00 0.00 0.00 51 1006.6
20260901205040 95 245 1.0 5.0 0.00 0.00 0.00 50 1006.7
20260901204540 96 226 1.0 5.0 0.00 0.00 0.00 50 1006.6
20260901204040 96 215 1.0 4.0 0.00 0.00 0.00 53 1006.6
20260901203539 95 220 1.0 3.0 0.00 0.00 0.00 50 1006.7
20260901203040 95 223 0.0 3.0 0.00 0.00 0.00 52 1006.7
20260901202540 95 217 0.0 3.0 0.00 0.00 0.00 56 1006.7
20260901202305 95 190 0.0 1.0 0.00 0.00 0.00 57 1006.8
20260901201803 96 171 1.0 3.0 0.00 0.00 0.00 53 1006.7
20260901201040 97 226 1.0 3.0 0.00 0.00 0.00 48 1006.8
20260901200802 97 214 1.0 5.0 0.00 0.00 0.00 49 1006.9
20260901200042 97 219 1.0 5.0 0.00 0.00 0.00 53 1007.0
20260901195538 97 244 1.0 5.0 0.00 0.00 0.00 51 1007.0
20260901195250 97 186 1.0 3.0 0.00 0.00 0.00 50 1007.1
20260901194527 97 186 1.0 3.0 0.00 0.00 0.00 49 1007.0
20260901194022 96 175 1.0 3.0 0.00 0.00 0.00 51 1007.1
20260901193515 96 162 1.0 5.0 0.00 0.00 0.00 52 1007.2
20260901193009 95 89 1.0 5.0 0.00 0.00 0.00 53 1007.4
20260901192722 95 204 2.0 7.0 0.00 0.00 0.00 50 1007.4
20260901191957 95 204 2.0 7.0 0.00 0.00 0.00 53 1007.5
20260901191453 95 72 1.0 5.0 0.00 0.00 0.00 54 1007.6
20260901190945 95 63 1.0 8.0 0.00 0.00 0.00 55 1007.5
20260901190440 95 51 1.0 8.0 0.00 0.00 0.00 55 1007.5
20260901185937 95 103 1.0 6.0 0.00 0.00 0.00 56 1007.6
20260901185438 95 229 0.0 4.0 0.00 0.00 0.00 54 1007.6
20260901184937 94 128 0.0 1.0 0.00 0.00 0.00 54 1007.7
20260901184435 94 122 0.0 1.0 0.00 0.00 0.00 59 1007.6
20260901183933 94 122 0.0 1.0 0.00 0.00 0.00 56 1007.6
20260901183433 94 122 0.0 2.0 0.00 0.00 0.00 57 1007.6
20260901182933 94 145 1.0 3.0 0.00 0.00 0.00 57 1007.6
20260901182434 94 143 1.0 4.0 0.00 0.00 0.00 57 1007.6
20260901181933 94 226 1.0 7.0 0.00 0.00 0.00 58 1007.6
20260901181432 93 221 1.0 7.0 0.00 0.00 0.00 60 1007.6
20260901180933 92 225 0.0 5.0 0.00 0.00 0.00 60 1007.7
20260901180431 92 264 1.0 4.0 0.00 0.00 0.00 62 1007.8
20260901175931 91 211 1.0 4.0 0.00 0.00 0.00 64 1007.8
20260901175653 91 180 0.0 0.0 0.00 0.00 0.00 67 1007.8
20260901174930 91 180 0.0 0.0 0.00 0.00 0.00 64 1007.8
20260901174427 91 180 0.0 0.0 0.00 0.00 0.00 66 1007.9
20260901173925 91 180 0.0 2.0 0.00 0.00 0.00 66 1007.9
20260901173423 91 180 0.0 2.0 0.00 0.00 0.00 63 1007.9
20260901172923 91 171 0.0 2.0 0.00 0.00 0.00 64 1007.9
20260901172416 91 184 0.0 2.0 0.00 0.00 0.00 63 1007.8
20260901171910 91 241 0.0 4.0 0.00 0.00 0.00 64 1008.0
20260901171631 91 162 1.0 4.0 0.00 0.00 0.00 61 1008.1
20260901171126 91 129 1.0 4.0 0.00 0.00 0.00 64 1008.2
20260901170353 92 139 1.0 4.0 0.00 0.00 0.00 60 1008.1
20260901165847 92 335 1.0 5.0 0.00 0.00 0.00 60 1008.2
20260901165341 91 207 1.0 5.0 0.00 0.00 0.00 60 1008.2
20260901164330 91 166 2.0 7.0 0.00 0.00 0.00 61 1008.2
20260901164041 91 73 2.0 9.0 0.00 0.00 0.00 61 1008.3
20260901163318 91 197 2.0 9.0 0.00 0.00 0.00 63 1008.4
20260901162810 91 218 2.0 8.0 0.00 0.00 0.00 62 1008.3
20260901162306 91 74 1.0 8.0 0.00 0.00 0.00 61 1008.4
20260901161759 90 205 1.0 8.0 0.00 0.00 0.00 64 1008.5
20260901161253 90 51 2.0 10.0 0.00 0.00 0.00 63 1008.6
20260901160747 90 195 2.0 10.0 0.00 0.00 0.00 61 1008.7
20260901160241 90 319 1.0 7.0 0.00 0.00 0.00 63 1008.6
20260901155953 90 166 2.0 7.0 0.00 0.00 0.00 65 1008.8
20260901155230 90 233 1.0 6.0 0.00 0.00 0.00 63 1008.8
20260901154723 90 179 1.0 5.0 0.00 0.00 0.00 65 1008.8
20260901154217 89 161 2.0 6.0 0.00 0.00 0.00 65 1009.0
20260901153711 89 180 2.0 8.0 0.00 0.00 0.00 63 1008.9
20260901153205 89 218 2.0 8.0 0.00 0.00 0.00 65 1008.9
20260901152700 88 198 1.0 6.0 0.00 0.00 0.00 67 1009.0
20260901152414 88 162 2.0 8.0 0.00 0.00 0.00 66 1009.1
20260901151646 88 213 2.0 10.0 0.00 0.00 0.00 66 1009.1
20260901151141 88 173 2.0 10.0 0.00 0.00 0.00 68 1009.1
20260901150634 87 145 2.0 7.0 0.00 0.00 0.00 71 1009.1
20260901150130 87 155 2.0 5.0 0.00 0.00 0.00 71 1009.2
20260901145623 87 297 1.0 5.0 0.00 0.00 0.00 71 1009.3
20260901145340 86 141 1.0 6.0 0.00 0.00 0.00 73 1009.3
20260901144611 86 184 2.0 7.0 0.00 0.00 0.00 72 1009.3
20260901144324 86 181 1.0 7.0 0.00 0.00 0.00 75 1009.3
20260901143825 85 213 0.0 3.0 0.00 0.00 0.00 76 1009.3
20260901143053 85 250 1.0 4.0 0.00 0.00 0.00 77 1009.1
20260901142547 84 195 1.0 4.0 0.00 0.00 0.00 79 1009.1
20260901142041 84 200 0.0 3.0 0.00 0.00 0.00 81 1009.2
20260901141535 84 214 0.0 2.0 0.00 0.00 0.00 80 1009.2
20260901141030 83 215 0.0 2.0 0.00 0.00 0.00 80 1009.3
20260901140017 83 211 1.0 5.0 0.00 0.00 0.00 82 1009.0
20260901135511 82 240 1.0 5.0 0.00 0.00 0.00 83 1009.1
20260901135005 81 141 2.0 6.0 0.00 0.00 0.00 84 1009.3
20260901134500 81 226 2.0 7.0 0.00 0.00 0.00 84 1009.3
20260901133953 80 179 1.0 7.0 0.00 0.00 0.00 83 1009.3
20260901133446 80 165 1.0 5.0 0.00 0.00 0.00 81 1009.4
20260901133204 79 214 1.0 5.0 0.00 0.00 0.00 80 1009.4
20260901132435 79 300 1.0 4.0 0.00 0.00 0.00 78 1009.5
20260901131931 78 218 1.0 4.0 0.00 0.00 0.00 77 1009.5
20260901130917 78 199 1.0 4.0 0.00 0.00 0.00 73 1009.7
20260901130411 78 219 1.0 4.0 0.00 0.00 0.00 71 1009.7
20260901125905 77 208 1.0 4.0 0.00 0.00 0.00 71 1009.7
20260901125400 77 154 0.0 3.0 0.00 0.00 0.00 70 1009.7
20260901124852 77 222 1.0 4.0 0.00 0.00 0.00 70 1009.7
20260901124611 77 215 0.0 4.0 0.00 0.00 0.00 70 1009.7
20260901123841 77 205 0.0 2.0 0.00 0.00 0.00 69 1009.7
20260901123334 76 233 1.0 3.0 0.00 0.00 0.00 70 1009.7
20260901123100 76 201 1.0 3.0 0.00 0.00 0.00 70 1009.7
20260901122323 76 233 1.0 3.0 0.00 0.00 0.00 71 1009.7
20260901121817 76 208 1.0 4.0 0.00 0.00 0.00 71 1009.6
20260901121534 76 217 1.0 4.0 0.00 0.00 0.00 71 1009.6
20260901120805 76 262 1.0 4.0 0.00 0.00 0.00 71 1009.6
20260901120520 75 205 1.0 3.0 0.00 0.00 0.00 71 1009.6
20260901115753 75 195 0.0 2.0 0.00 0.00 0.00 71 1009.6